sat.trackr.live / text

‹ back to catalog

STARLINK-32202

NORAD 60595 · 2024-150N

PAYLOAD ACTIVE UNKNOWN

§ Identity

Operator
Country
US
Launch date
2024-08-20
Launch site
AFETR
Launch vehicle
Mass (kg)
RCS (m²)

Purposes: comms

External: N2YO · Heavens-Above · Gunter

§ Orbital elements

Epoch: 2026-05-24T21:07:19.349184Z

Period
94.11 min
Inclination
53.1606°
Eccentricity
0.0002087
Mean motion
15.30098520 rev/d
Perigee alt
474.1 km
Apogee alt
476.9 km
Semi-major
6,853.7 km
B*
7.5757e-4
RAAN
313.3296°
Arg perigee
87.5823°
Mean anomaly
272.5417°
Rev number
9,970

§ Raw data

STARLINK-322021 60595U 24150N   26144.88008506  .00022075  00000+0  75757-3 0  99982 60595  53.1606 313.3296 0002087  87.5823 272.5417 15.30098520 99701

JSON: /api/v1/satellites/60595 · /tle

For live sub-satellite position, see the globe view (requires WebGL).

§ Visibility from observer

Set your observer location to see the next 7 days of passes ≥ 10°. The values pass through the URL so the page stays shareable.

No JS? Fill the form by hand. The geolocation button needs JavaScript.